www.pogodaiklimat.ru

Погода и климат >> Архив погоды >> Россия >> Краснодарский край >> Сочи аэропорт (Адлер)


ПОГОДА в Сочи аэропорт (Адлере)

  • Прогноз погоды в Сочи аэропорт (Адлере)
  • Монитор погоды в Сочи аэропорт (Адлере)

АРХИВ ПОГОДЫ в Сочи аэропорт (Адлере)

Время (UTC), дата Ветер
(напр.,м/с)
 
Видим.   Явления Облачность Т
(С)
Тd
(С)
f
(%)
Тe
(С)
Тes
(С)
Комфортность P
(гПа)
Po
(гПа)
Тmin
(С)
Tmax
(С)
R
(мм)
R24
(мм)
S
(см)
12 11.06 З 5 20 км 3/0
[Ci fib]
+29.0 +19.0 55 +34 +41 очень
душно
1007.0 1005.3
15 11.06 З 5
{10}
20 км 1/0
[Ci fib]
+27.4 +21.3 69 +35 +36 очень
душно
1005.1 1003.4 +30.2
18 11.06 ЮВ 1
{10}
4000 м 10/0
[Ac trans Ci fib]
+26.4 +22.1 77 +34 +34 очень
душно
1006.7 1005.0
21 11.06 В 3 4000 м 6/0
[Ac trans]
+24.0 +19.3 75 +29 +29 душно 1007.3 1005.6
00 12.06 В 3 4000 м 8/0
[Ac trans]
+23.5 +18.6 74 +28 +28 душно 1006.8 1005.1
03 12.06 В 3 20 км 9/6 450 м
[St Ac trans]
+23.4 +17.7 70 +29 +29 душно 1007.4 1005.7 +21.5
06 12.06 СВ 1 20 км 9/0
[Ac trans]
+27.0 +19.3 63 +33 +38 очень
душно
1007.6 1005.9
09 12.06 Ю 3 20 км 3/3 600 м
[Cu hum]
+29.8 +19.7 55 +36 +47 очень
душно
1007.8 1006.1
12 12.06 ЮЗ 3 20 км 4/4 1000 м
[Cu med, cong]
+28.0 +20.4 63 +34 +41 очень
душно
1007.8 1006.1
15 12.06 Ю 3 10 км 6/3 600 м
[Cb cap Ac cuf]
+27.2 +23.2 79 +37 +38 очень
душно
1007.8 1006.1 +30.5
18 12.06 С 1 4000 м 5/5 450 м
[Cb cap]
+25.7 +23.2 86 +34 +34 очень
душно
1008.5 1006.8
21 12.06 В 3 4000 м 6/4 1000 м
[Cb cap Ac trans]
+23.8 +18.4 72 +28 +28 душно 1009.1 1007.4
00 13.06 В 5 4000 м гроза без осадков 6/6 420 м
[Cb cap]
+24.0 +19.0 74 +29 +29 душно 1009.4 1007.7
03 13.06 штиль 0 20 км гроза без осадков 10/4 420 м
[Cb cap As trans]
+22.0 +18.8 82 +27 +27 душно 1010.5 1008.8 +21.6
06 13.06 В 2 20 км {гроза} 10/4 600 м
[Cb cap Ac und]
+24.0 +17.7 68 +28 +30 душно 1011.0 1009.3
09 13.06 З 2 20 км 10/3 600 м
[Cb cap Ac und]
+24.6 +17.9 66 +29 +33 душно 1010.8 1009.1
12 13.06 З 6 20 км 8/1 1000 м
[Cb cap Ac trans]
+25.6 +18.7 66 +31 +33 очень
душно
1009.9 1008.2
15 13.06 СЗ 4 20 км 6/1 1000 м
[Cb cap Ci fib]
+25.8 +20.6 73 +32 +33 очень
душно
1009.9 1008.2 +27.4
18 13.06 СЗ 1 4000 м 3/0
[Ci fib]
+24.0 +19.3 75 +29 +29 душно 1010.4 1008.7
21 13.06 СВ 2 4000 м 3/0
[Ci fib]
+21.6 +19.4 87 +27 +27 душно 1012.0 1010.3
00 14.06 СВ 2 4000 м ясно +20.6 +18.4 87 +25 +25 комфорт 1011.4 1009.6
03 14.06 СВ 4 20 км 6/0
[Ci fib]
+20.6 +17.4 82 +24 +25 комфорт 1011.6 1009.8 +18.7
06 14.06 ЮЗ 3 20 км 5/0
[Ci fib]
+25.6 +17.7 62 +30 +38 душно 1012.2 1010.5
09 14.06 З 4 20 км 6/1 1000 м
[Cu hum Ci fib]
+26.5 +19.6 66 +32 +43 очень
душно
1012.2 1010.5
12 14.06 З 6 20 км 4/3 1000 м
[Cb cap Ac trans]
+27.2 +21.2 70 +34 +38 очень
душно
1011.3 1009.6
15 14.06 З 5 20 км {гроза} 8/1 1000 м
[Cb cap Ac trans Ci fib]
+25.8 +21.9 79 +33 +34 очень
душно
1010.5 1008.8 +28.1
18 14.06 штиль 0 4000 м 8/0
[Ac trans Ci fib]
+25.1 +22.1 83 +32 +32 очень
душно
1011.8 1010.1
21 14.06 СВ 4 4000 м 6/3 600 м
[Sc Ac trans]
+23.2 +19.5 80 +30 +30 очень
душно
1012.1 1010.4
00 15.06 штиль 0 4000 м 5/1 600 м
[Sc Ac trans]
+21.8 +19.0 84 +27 +27 душно 1010.6 1008.9
03 15.06 С 1 20 км 8/0
[Ac trans]
+21.6 +17.4 77 +26 +26 душно 1010.4 1008.7 +20.5
06 15.06 З 3 20 км 9/0
[Ac trans Ci fib]
+27.3 +19.1 61 +33 +40 очень
душно
1010.1 1008.4
09 15.06 З 5 20 км 9/1 1500 м
[Cb cap Ci fib]
+27.3 +22.4 75 +36 +43 очень
душно
1010.5 1008.8
12 15.06 З 7-10
{10}
20 км 3/3 1000 м
[Cb cap]
+27.6 +22.9 76 +37 +40 очень
душно
1008.8 1007.1
15 15.06 З 5
{10}
20 км 8/3 1500 м
[Cb cap Ci fib]
+26.9 +22.5 77 +35 +36 очень
душно
1007.7 1006.0 +28.7
18 15.06 штиль 0
{10}
4000 м 8/0
[Ci fib]
+25.2 +23.3 89 +34 +34 очень
душно
1008.0 1006.3
21 15.06 В 3 4000 м 8/8 270 м
[St]
+24.2 +20.4 79 +30 +30 очень
душно
1009.6 1007.9
00 16.06 В 3 4000 м 3/0
[Ac trans]
+22.3 +16.0 68 +26 +26 жарко 1009.1 1007.4
03 16.06 В 4 20 км 3/0
[Ac trans]
+21.6 +15.4 68 +25 +26 комфорт 1008.9 1007.2 +20.8
06 16.06 В 3 20 км 4/0
[Ac trans]
+28.4 +17.4 51 +32 +39 душно 1008.5 1006.8
09 16.06 СЗ 2 20 км 9/0
[Ac trans]
+27.4 +20.1 64 +34 +43 очень
душно
1009.1 1007.4
12 16.06 СЗ 5 20 км 3/3 1000 м
[Cu med, cong]
+28.6 +22.8 71 +38 +43 очень
душно
1008.4 1006.7
15 16.06 З 5 20 км 5/0
[Ac trans]
+27.4 +23.9 81 +38 +39 очень
душно
1007.1 1005.4 +29.5
18 16.06 Ю 1
{11}
4000 м 3/0
[Ac trans]
+25.6 +22.2 82 +33 +33 очень
душно
1008.0 1006.3
21 16.06 СВ 3 4000 м 6/6 400 м
[St]
+24.6 +22.4 88 +32 +32 очень
душно
1009.6 1007.9
00 17.06 С 1 4000 м гроза без осадков {ливн. осадки} 9/3 600 м
[Cb cap Ci fib]
+22.6 +19.7 84 +29 +29 очень
душно
1008.5 1006.8
03 17.06 СВ 4 20 км {гроза} 3/0
[Ac trans]
+21.8 +15.7 68 +25 +26 комфорт 1008.3 1006.6 +21.4 0.0
06 17.06 З 3 20 км {гроза} 3/0
[Ac trans]
+28.4 +17.5 52 +33 +40 очень
душно
1009.1 1007.4
09 17.06 З 4 10 км ?/? +28.2 +22.0 69 +36 +36 очень
душно
1009.3 1007.6
12 17.06 З 6 20 км в посл. час гроза 9/3 1000 м
[Cb cap Ci fib]
+28.3 +22.9 73 +38 +41 очень
душно
1007.3 1005.6
15 17.06 З 7-10
{13}
20 км 1/0
[Ci fib]
+27.0 +21.3 71 +34 +35 очень
душно
1006.1 1004.4 +29.5
18 17.06 штиль 0
{14}
4000 м 4/4 360 м
[St]
+25.6 +23.9 90 +35 +35 очень
душно
1007.7 1006.0
21 17.06 СВ 3 4000 м 8/8 330 м
[St]
+24.4 +20.9 81 +31 +31 очень
душно
1006.8 1006.8
00 18.06 ЮВ 5
{10}
4000 м гроза без осадков 10/8 660 м
[Cb cap Ci fib]
+24.8 +20.4 77 +31 +31 очень
душно
1009.5 1007.8
03 18.06 СВ 2 20 км в посл. час гроза 9/3 1000 м
[Cb cap Ac trans Ci fib]
+22.4 +16.1 68 +27 +27 душно 1008.6 1006.9 +21.5
06 18.06 З 2 20 км {гроза} 3/0
[Ci fib]
+27.2 +18.4 59 +32 +42 очень
душно
1009.2 1007.5
09 18.06 З 3 20 км 3/1 1500 м
[Cb calv Ci fib]
+28.0 +19.4 60 +34 +48 очень
душно
1009.4 1007.7

 

Местоположение метеостанции Сочи аэропорт (Адлер) (Краснодарский край, Россия): широта 43.43 долгота 39.90 высота над уровнем моря 15 м.

В архиве по умолчанию представлена погода в Сочи аэропорт (Адлере) за последнюю неделю. Архивные данные за месяц целиком и за предыдущие месяцы, начиная с января 2011 года, Вы можете получить, выбрав интересующий диапазон дат из раскрывающегося списка и нажав кнопку "Ввод!".


*Определитесь, кто Вы:
робот инопланетянин человек

Внимание! Время в таблицах - всемирное. Для получения местного времени необходимо прибавить поправку, которая равна 3 ч.

Смотрите также архив погоды в соседних городах и на ближайших метеорологических станциях:

Погода в Имеретинке (Краснодарский край, Россия) (5 км)
Погода в Сочи (Краснодарский край, Россия) (20 км)
Погода в Кепше (Краснодарский край, Россия) (24 км)
Погода в Красной Поляне (Краснодарский край, Россия) (37 км)
Погода в Горная Карусель 1500 (Краснодарский край, Россия) (40 км)
Погода в Горная Карусель 1000 (Краснодарский край, Россия) (40 км)
Погода на Кордоне Лаура (Краснодарский край, Россия) (44 км)
Погода в Солох Ауле (Краснодарский край, Россия) (47 км)
Погода в Кичмае (Краснодарский край, Россия) (54 км)
Погода в Гузерипле (Адыгея, Россия) (66 км)

Пояснения к столбцам:

Ветер - указаны скорость ветра в м/с - средняя за 10 мин, порывы в срок и между сроками (в фигурных скобках) и направление, откуда дует ветер: С - северный, СВ - северо-восточный, В - восточный, ЮВ - юго-восточный, Ю - южный, ЮЗ - юго-западный, З - западный, СЗ - северо-западный.
Видимость - горизонтальная дальность видимости в метрах или километрах. При видимости от 1 до 10 км при отсутствии осадков обычно наблюдается дымка, при ухудшении видимости до 1 км и менее - туман. В сухую погоду видимость может ухудшаться дымом, пылью или мглою.
Явления - указаны атмосферные явления, наблюдавшиеся в срок или в последний час перед сроком; фигурными скобками обозначены явления, наблюдавшиеся между сроками (за 1-3 часа до срока); квадратными скобками обозначены град или гололедные отложения с указанием их диаметра в мм.
Облачность - указаны через наклонную черту общая и нижняя облачность в баллах и высота нижней границы облаков в метрах; квадратными скобками обозначены формы облаков: Ci - перистые, Cs - перисто-слоистые, Cc - перисто-кучевые, Ac - высококучевые, As - высокослоистые, Sc - слоисто-кучевые, Ns - слоисто-дождевые, Cu - кучевые, Cb - кучево-дождевые. Подробнее классификацию облаков см. в Атласе облаков (PDF).
T - Температура воздуха - температура, измеренная на высоте 2 м над землей.
Td - Температура точки росы - температура, при понижении до которой содержащийся в воздухе водяной пар достигнет насыщения.
f - Относительная влажность воздуха - влажноcть воздуха, измеренная на высоте 2 м над землей.
Te - Эффективная температура - температура, которую ощущает одетый по сезону человек в тени. Характеристика душности погоды. При расчете учитывается влияние влажности воздуха и скорости ветра на теплоощущения человека.
Tes - Эффективная температура на солнце - температура, которую ощущает человек, с поправкой на солнечный нагрев. Характеристика знойности погоды. Зависит от высоты солнца над горизонтом, облачности и скорости ветра. Ночью, в пасмурную погоду, а также при ветре 12 м/с и более поправка равна нулю.
P - Атмосферное давление - приведенное к уровню моря атмосферное давление.
Po - Атмосферное давление - измеренное на уровне метеостанции атмосферное давление.
Tmin - Минимальная температура - минимум температуры воздуха на высоте 2 м над землей.
Tmax - Максимальная температура - максимум температуры воздуха на высоте 2 м над землей.
R - Количество осадков - Количество выпавших осадков за период времени, мм. При наведении курсора мыши на число - период времени, за который выпало указанное количество осадков.
R24 - Количество осадков - Количество выпавших осадков за 24 часа, мм.
S - Снежный покров - Высота снежного покрова, см. При наведении курсора мыши на число - состояние снежного покрова и степень покрытия местности в баллах.